Weather History for KTRK - January, 2013

Change the Weather History Date:

Saturday, January 19, 2013

  Actual Average (KRNO) Record (KRNO)
Temperature  
Mean Temperature 14 °F 36 °F  
Max Temperature 32 °F 46 °F 67 °F (1986)
Min Temperature -4 °F 26 °F -4 °F (1952)
Degree Days  
Heating Degree Days 51 29  
Month to date heating degree days 569  
Since 1 July heating degree days 2593  
Cooling Degree Days 0 0  
Month to date cooling degree days 0  
Year to date cooling degree days 0  
Moisture  
Dew Point 5 °F    
Average Humidity 77    
Maximum Humidity 92    
Minimum Humidity 43    
Precipitation  
Precipitation 0.00 in 0.03 in 0.73 in (1969)
Month to date precipitation 0.69  
Year to date precipitation 0.69  
Snow  
Snow 0.00 in 0.10 in 10.50 in (1933)
Month to date snowfall 4.1  
Since 1 July snowfall 12.5  
Snow Depth 17.00 in    
Sea Level Pressure  
Sea Level Pressure 30.39 in    
Wind  
Wind Speed 0 mph (SSW)    
Max Wind Speed 4 mph    
Max Gust Speed -    
Visibility 8 miles    
Events Fog , Snow    
T = Trace of Precipitation, MM = Missing Value Source: NWS Daily Summary

Daily Weather History Graph

Daily Weather History Graph

Search for Another Location

Airport or City:

Trip Planner

Search our weather history database for the weather conditions in past years. The results will help you decide how hot, cold, wet, or windy it might be!

Date:

Astronomy

Jan. 19, 2013 Rise Set
Actual Time 7:16 AM PST 5:06 PM PST
Civil Twilight 6:47 AM PST 5:35 PM PST
Nautical Twilight 6:14 AM PST 6:08 PM PST
Astronomical Twilight 5:42 AM PST 6:40 PM PST
Moon 11:35 AM PST (1/19) 12:56 AM PST (1/19)
Length of Visible Light 10h 47m
Length of Day
9h 49m
First Quarter, 58% of the Moon is Illuminated
Jan 19
First Quarter
Jan 26
Full
Feb 3
Last Quarter
Feb 9
New
Feb 17
First Quarter

Hourly Weather History & Observations

Time (PST) Temp. Windchill Dew Point Humidity Pressure Visibility Wind Dir Wind Speed Gust Speed Precip Events Conditions
12:15 AM 8.6 °F - 5.0 °F 85% 30.39 in 3.0 mi Calm Calm - N/A   Clear
12:35 AM 6.8 °F - 1.4 °F 79% 30.39 in 0.8 mi Calm Calm - N/A   Mist
12:55 AM 3.2 °F -4.2 °F -0.4 °F 85% 30.39 in 0.2 mi South 3.5 mph - N/A Fog Light Freezing Fog
1:15 AM 5.0 °F - 1.4 °F 85% 30.40 in 3.0 mi Calm Calm - N/A   Clear
1:35 AM 6.8 °F - 3.2 °F 85% 30.40 in 3.0 mi Calm Calm - N/A   Clear
1:55 AM 3.2 °F - -0.4 °F 85% 30.40 in 0.2 mi Calm Calm - N/A Fog Light Freezing Fog
2:15 AM 3.2 °F - -0.4 °F 85% 30.40 in 0.2 mi Calm Calm - N/A Fog Light Freezing Fog
2:35 AM 1.4 °F - -2.2 °F 85% 30.41 in 0.2 mi Calm Calm - N/A Fog Light Freezing Fog
2:55 AM 1.4 °F - -0.4 °F 92% 30.40 in 5.0 mi Calm Calm - N/A   Clear
3:15 AM 3.2 °F - -0.4 °F 85% 30.40 in 0.5 mi Calm Calm - N/A Fog Light Freezing Fog
3:35 AM 1.4 °F - -2.2 °F 85% 30.40 in 1.8 mi Calm Calm - N/A   Clear
4:55 AM -0.4 °F - -4.0 °F 85% 30.39 in 0.2 mi Calm Calm - N/A Fog Light Freezing Fog
5:15 AM -2.2 °F - -7.6 °F 78% 30.39 in 0.2 mi Calm Calm - N/A   Haze
6:55 AM -4.0 °F - -9.4 °F 78% 30.42 in 10.0 mi Calm Calm - N/A   Partly Cloudy
7:55 AM -0.4 °F - -4.0 °F 85% 30.43 in 10.0 mi Calm Calm - N/A   Partly Cloudy
8:45 AM 1.4 °F - -2.2 °F 85% 30.44 in 10.0 mi Calm Calm - N/A   Clear
9:45 AM 3.2 °F - -0.4 °F 85% 30.45 in 10.0 mi Calm Calm - N/A   Clear
10:50 AM 12.2 °F - 8.6 °F 85% 30.44 in 10.0 mi Calm Calm - N/A   Clear
11:45 AM 17.6 °F - 14.0 °F 86% 30.40 in 10.0 mi Calm Calm - N/A   Clear
12:45 PM 21.2 °F - 14.0 °F 74% 30.37 in 10.0 mi Calm Calm - N/A   Clear
1:45 PM 28.4 °F - 8.6 °F 43% 30.35 in 10.0 mi Calm Calm - N/A   Clear
2:45 PM 30.2 °F - 14.0 °F 51% 30.34 in 10.0 mi Calm Calm - N/A   Clear
3:50 PM 32.0 °F - 12.2 °F 44% 30.33 in 10.0 mi Calm Calm - N/A   Clear
4:45 PM 30.2 °F - 14.0 °F 51% 30.34 in 10.0 mi Calm Calm - N/A   Clear
4:55 PM 26.6 °F - 12.2 °F 55% 30.34 in 10.0 mi Calm Calm - N/A   Clear
5:15 PM 26.6 °F - 12.2 °F 55% 30.34 in 10.0 mi Calm Calm - N/A   Clear
5:35 PM 23.0 °F 18.4 °F 10.4 °F 59% 30.34 in 10.0 mi NNW 3.5 mph - N/A   Clear
5:55 PM 21.2 °F - 10.4 °F 63% 30.35 in 10.0 mi Calm Calm - N/A Snow Light Snow
6:15 PM 17.6 °F - 10.4 °F 73% 30.36 in 10.0 mi Calm Calm - N/A Snow Light Snow
6:35 PM 21.2 °F - 10.4 °F 63% 30.36 in 10.0 mi Calm Calm - N/A Snow Light Snow
6:55 PM 19.4 °F - 10.4 °F 68% 30.36 in 10.0 mi Calm Calm - N/A Snow Light Snow
7:15 PM 15.8 °F - 8.6 °F 73% 30.37 in 10.0 mi Calm Calm - N/A   Clear
7:35 PM 15.8 °F - 10.4 °F 79% 30.38 in 10.0 mi Calm Calm - N/A   Clear
7:55 PM 17.6 °F - 10.4 °F 73% 30.39 in 10.0 mi Calm Calm - N/A   Clear
8:15 PM 15.8 °F - 10.4 °F 79% 30.39 in 10.0 mi Calm Calm - N/A   Unknown
8:35 PM 14.0 °F - 8.6 °F 79% 30.39 in 10.0 mi Calm Calm - N/A   Clear
8:55 PM 14.0 °F - 8.6 °F 79% 30.40 in 10.0 mi Calm Calm - N/A   Clear
9:15 PM 8.6 °F 2.0 °F 6.8 °F 92% 30.40 in 10.0 mi South 3.5 mph - N/A   Clear
9:35 PM 12.2 °F - 8.6 °F 85% 30.40 in 10.0 mi Calm Calm - N/A   Clear
9:55 PM 10.4 °F - 6.8 °F 85% 30.41 in 10.0 mi Calm Calm - N/A   Clear
10:15 PM 10.4 °F - 6.8 °F 85% 30.41 in 10.0 mi Calm Calm - N/A   Clear
10:35 PM 8.6 °F - 6.8 °F 92% 30.41 in 10.0 mi Calm Calm - N/A   Clear
10:55 PM 8.6 °F - 6.8 °F 92% 30.41 in 10.0 mi Calm Calm - N/A   Clear
11:15 PM 10.4 °F 4.0 °F 6.8 °F 85% 30.41 in 10.0 mi SW 3.5 mph - N/A   Clear
11:35 PM 6.8 °F - 5.0 °F 92% 30.41 in 10.0 mi Calm Calm - N/A   Clear
11:55 PM 5.0 °F - 1.4 °F 85% 30.41 in 8.0 mi Calm Calm - N/A   Clear